| time (UTC) | temp C | wind direction | speed KPH | gust KPH | rain 1hr cm | rain 24hr cm | rain mn cm | humidity % | barometer mb |
| 20260505223840 | 16 | 10 | 3.2 | 16.1 | 0.00 | 0.00 | 0.00 | 64 | 1007.4 |
| 20260505223340 | 16 | 116 | 8.0 | 14.5 | 0.00 | 0.00 | 0.00 | 64 | 1007.5 |
| 20260505222840 | 16 | 90 | 8.0 | 25.7 | 0.00 | 0.00 | 0.00 | 64 | 1007.4 |
| 20260505222340 | 16 | 98 | 1.6 | 25.7 | 0.00 | 0.00 | 0.00 | 63 | 1007.7 |
| 20260505221840 | 16 | 87 | 8.0 | 17.7 | 0.00 | 0.00 | 0.00 | 63 | 1007.4 |
| 20260505221341 | 16 | 135 | 1.6 | 16.1 | 0.00 | 0.00 | 0.00 | 63 | 1007.3 |
| 20260505220841 | 16 | 109 | 3.2 | 14.5 | 0.00 | 0.00 | 0.00 | 63 | 1007.4 |
| 20260505220341 | 16 | 91 | 6.4 | 24.1 | 0.00 | 0.00 | 0.00 | 62 | 1007.5 |
| 20260505215840 | 16 | 98 | 16.1 | 24.1 | 0.00 | 0.00 | 0.00 | 61 | 1007.4 |
| 20260505215341 | 16 | 10 | 6.4 | 11.3 | 0.00 | 0.00 | 0.00 | 61 | 1007.6 |
| 20260505214844 | 17 | 164 | 1.6 | 22.5 | 0.00 | 0.00 | 0.00 | 60 | 1007.4 |
| 20260505214343 | 17 | 137 | 9.7 | 22.5 | 0.00 | 0.00 | 0.00 | 60 | 1007.6 |
| 20260505213844 | 17 | 301 | 0.0 | 16.1 | 0.00 | 0.00 | 0.00 | 59 | 1007.4 |
| 20260505213633 | 17 | 119 | 0.0 | 4.8 | 0.00 | 0.00 | 0.00 | 59 | 1007.7 |
| 20260505212843 | 17 | 265 | 3.2 | 11.3 | 0.00 | 0.00 | 0.00 | 59 | 1007.6 |
| 20260505212342 | 17 | 309 | 0.0 | 16.1 | 0.00 | 0.00 | 0.00 | 58 | 1007.5 |
| 20260505211844 | 17 | 297 | 0.0 | 16.1 | 0.00 | 0.00 | 0.00 | 59 | 1007.6 |
| 20260505211343 | 17 | 53 | 3.2 | 12.9 | 0.00 | 0.00 | 0.00 | 58 | 1007.7 |
| 20260505210844 | 17 | 98 | 3.2 | 12.9 | 0.00 | 0.00 | 0.00 | 57 | 1007.7 |
| 20260505210344 | 17 | 63 | 1.6 | 20.9 | 0.00 | 0.00 | 0.00 | 57 | 1007.6 |
| 20260505205843 | 17 | 341 | 1.6 | 20.9 | 0.00 | 0.00 | 0.00 | 57 | 1007.7 |
| 20260505205343 | 17 | 140 | 3.2 | 12.9 | 0.00 | 0.00 | 0.00 | 57 | 1007.7 |
| 20260505204843 | 17 | 214 | 1.6 | 25.7 | 0.00 | 0.00 | 0.00 | 56 | 1007.7 |
| 20260505204343 | 18 | 74 | 4.8 | 25.7 | 0.00 | 0.00 | 0.00 | 55 | 1007.5 |
| 20260505203844 | 18 | 76 | 3.2 | 14.5 | 0.00 | 0.00 | 0.00 | 54 | 1007.6 |
| 20260505203343 | 18 | 262 | 9.7 | 12.9 | 0.00 | 0.00 | 0.00 | 54 | 1007.9 |
| 20260505202843 | 18 | 102 | 3.2 | 27.4 | 0.00 | 0.00 | 0.00 | 54 | 1007.5 |
| 20260505202626 | 18 | 119 | 11.3 | 27.4 | 0.00 | 0.00 | 0.00 | 53 | 1007.4 |
| 20260505201842 | 18 | 98 | 1.6 | 17.7 | 0.00 | 0.00 | 0.00 | 53 | 1007.5 |
| 20260505201628 | 18 | 108 | 1.6 | 24.1 | 0.00 | 0.00 | 0.00 | 52 | 1007.3 |
| 20260505200840 | 18 | 125 | 9.7 | 24.1 | 0.00 | 0.00 | 0.00 | 52 | 1007.6 |
| 20260505200341 | 18 | 97 | 14.5 | 22.5 | 0.00 | 0.00 | 0.00 | 52 | 1007.6 |
| 20260505195841 | 18 | 290 | 6.4 | 22.5 | 0.00 | 0.00 | 0.00 | 51 | 1007.5 |
| 20260505195341 | 18 | 67 | 0.0 | 12.9 | 0.00 | 0.00 | 0.00 | 52 | 1007.6 |
| 20260505194840 | 18 | 88 | 6.4 | 12.9 | 0.00 | 0.00 | 0.00 | 52 | 1007.6 |
| 20260505194340 | 18 | 69 | 0.0 | 12.9 | 0.00 | 0.00 | 0.00 | 52 | 1007.5 |
| 20260505193840 | 19 | 89 | 8.0 | 17.7 | 0.00 | 0.00 | 0.00 | 52 | 1007.6 |
| 20260505193341 | 19 | 71 | 9.7 | 20.9 | 0.00 | 0.00 | 0.00 | 51 | 1007.7 |
| 20260505192840 | 19 | 295 | 0.0 | 33.8 | 0.00 | 0.00 | 0.00 | 51 | 1007.7 |
| 20260505192341 | 19 | 244 | 3.2 | 33.8 | 0.00 | 0.00 | 0.00 | 51 | 1007.7 |
| 20260505191841 | 19 | 113 | 0.0 | 22.5 | 0.00 | 0.00 | 0.00 | 51 | 1007.6 |
| 20260505191340 | 19 | 83 | 6.4 | 22.5 | 0.00 | 0.00 | 0.00 | 51 | 1007.7 |
| 20260505191117 | 20 | 7 | 0.0 | 17.7 | 0.00 | 0.00 | 0.00 | 50 | 1007.7 |
| 20260505190624 | 20 | 10 | 9.7 | 17.7 | 0.00 | 0.00 | 0.00 | 50 | 1007.9 |
| 20260505185841 | 20 | 327 | 9.7 | 30.6 | 0.00 | 0.00 | 0.00 | 50 | 1007.7 |
| 20260505185341 | 20 | 94 | 3.2 | 30.6 | 0.00 | 0.00 | 0.00 | 50 | 1007.6 |
| 20260505184841 | 20 | 64 | 6.4 | 20.9 | 0.00 | 0.00 | 0.00 | 51 | 1008.0 |
| 20260505184426 | 20 | 99 | 4.8 | 12.9 | 0.00 | 0.00 | 0.00 | 50 | 1007.7 |
| 20260505184348 | 20 | 89 | 4.8 | 14.5 | 0.00 | 0.00 | 0.00 | 50 | 1007.5 |
| 20260505183341 | 20 | 27 | 0.0 | 16.1 | 0.00 | 0.00 | 0.00 | 50 | 1007.7 |
| 20260505182840 | 21 | 93 | 3.2 | 24.1 | 0.00 | 0.00 | 0.00 | 49 | 1007.5 |
| 20260505182341 | 21 | 131 | 3.2 | 24.1 | 0.00 | 0.00 | 0.00 | 49 | 1007.3 |
| 20260505181840 | 21 | 179 | 3.2 | 12.9 | 0.00 | 0.00 | 0.00 | 50 | 1007.3 |
| 20260505181645 | 21 | 135 | 1.6 | 24.1 | 0.00 | 0.00 | 0.00 | 49 | 1007.3 |
| 20260505181119 | 21 | 355 | 1.6 | 33.8 | 0.00 | 0.00 | 0.00 | 48 | 1007.4 |
| 20260505180345 | 21 | 42 | 8.0 | 33.8 | 0.00 | 0.00 | 0.00 | 49 | 1007.4 |
| 20260505175842 | 21 | 126 | 6.4 | 22.5 | 0.00 | 0.00 | 0.00 | 49 | 1007.4 |
| 20260505175343 | 21 | 102 | 6.4 | 20.9 | 0.00 | 0.00 | 0.00 | 49 | 1007.3 |
| 20260505174840 | 21 | 278 | 1.6 | 20.9 | 0.00 | 0.00 | 0.00 | 50 | 1007.5 |
| 20260505174353 | 22 | 69 | 6.4 | 20.9 | 0.00 | 0.00 | 0.00 | 49 | 1007.3 |
| 20260505173841 | 22 | 21 | 8.0 | 20.9 | 0.00 | 0.00 | 0.00 | 49 | 1007.5 |
| 20260505173343 | 22 | 283 | 1.6 | 12.9 | 0.00 | 0.00 | 0.00 | 49 | 1007.4 |
| 20260505173117 | 22 | 81 | 4.8 | 11.3 | 0.00 | 0.00 | 0.00 | 48 | 1007.4 |
| 20260505172344 | 22 | 69 | 0.0 | 12.9 | 0.00 | 0.00 | 0.00 | 47 | 1007.3 |
| 20260505171841 | 22 | 312 | 0.0 | 17.7 | 0.00 | 0.00 | 0.00 | 47 | 1007.3 |
| 20260505171348 | 23 | 109 | 6.4 | 17.7 | 0.00 | 0.00 | 0.00 | 46 | 1007.4 |
| 20260505170840 | 23 | 32 | 1.6 | 20.9 | 0.00 | 0.00 | 0.00 | 46 | 1007.3 |
| 20260505170356 | 23 | 84 | 3.2 | 24.1 | 0.00 | 0.00 | 0.00 | 46 | 1007.4 |
| 20260505165841 | 23 | 70 | 9.7 | 24.1 | 0.00 | 0.00 | 0.00 | 46 | 1007.2 |
| 20260505165340 | 23 | 139 | 6.4 | 20.9 | 0.00 | 0.00 | 0.00 | 45 | 1007.2 |
| 20260505164841 | 23 | 37 | 0.0 | 33.8 | 0.00 | 0.00 | 0.00 | 45 | 1007.3 |
| 20260505164341 | 23 | 51 | 19.3 | 33.8 | 0.00 | 0.00 | 0.00 | 45 | 1007.2 |
| 20260505163840 | 23 | 85 | 0.0 | 29.0 | 0.00 | 0.00 | 0.00 | 44 | 1007.2 |
| 20260505163342 | 23 | 74 | 6.4 | 29.0 | 0.00 | 0.00 | 0.00 | 45 | 1007.2 |
| 20260505162840 | 23 | 103 | 12.9 | 29.0 | 0.00 | 0.00 | 0.00 | 45 | 1007.4 |
| 20260505162340 | 24 | 27 | 4.8 | 17.7 | 0.00 | 0.00 | 0.00 | 44 | 1007.5 |
| 20260505162117 | 24 | 155 | 4.8 | 27.4 | 0.00 | 0.00 | 0.00 | 44 | 1007.3 |
| 20260505161341 | 23 | 69 | 8.0 | 27.4 | 0.00 | 0.00 | 0.00 | 44 | 1007.5 |
| 20260505160840 | 24 | 79 | 0.0 | 29.0 | 0.00 | 0.00 | 0.00 | 44 | 1007.3 |
| 20260505160340 | 23 | 111 | 1.6 | 29.0 | 0.00 | 0.00 | 0.00 | 44 | 1007.5 |
| 20260505153342 | 23 | 296 | 0.0 | 27.4 | 0.00 | 0.00 | 0.00 | 44 | 1007.7 |
| 20260505152843 | 23 | 19 | 3.2 | 29.0 | 0.00 | 0.00 | 0.00 | 44 | 1007.7 |
| 20260505152343 | 23 | 333 | 0.0 | 33.8 | 0.00 | 0.00 | 0.00 | 43 | 1007.6 |
| 20260505151842 | 23 | 302 | 8.0 | 33.8 | 0.00 | 0.00 | 0.00 | 41 | 1007.7 |
| 20260505151341 | 23 | 82 | 14.5 | 27.4 | 0.00 | 0.00 | 0.00 | 40 | 1007.9 |
| 20260505150839 | 23 | 50 | 4.8 | 35.4 | 0.00 | 0.00 | 0.00 | 37 | 1008.0 |
| 20260505150350 | 24 | 20 | 8.0 | 38.6 | 0.00 | 0.00 | 0.00 | 34 | 1007.9 |
| 20260505140602 | 25 | 67 | 14.5 | 24.1 | 0.00 | 0.00 | 0.00 | 34 | 1008.2 |
| 20260505124805 | 23 | 2 | 1.6 | 33.8 | 0.00 | 0.00 | 0.00 | 36 | 1009.0 |
| 20260505124305 | 23 | 36 | 0.0 | 33.8 | 0.00 | 0.00 | 0.00 | 35 | 1009.0 |
| 20260505124054 | 23 | 89 | 14.5 | 27.4 | 0.00 | 0.00 | 0.00 | 35 | 1008.9 |
| 20260505123301 | 23 | 149 | 8.0 | 24.1 | 0.00 | 0.00 | 0.00 | 36 | 1009.1 |
| 20260505122803 | 23 | 67 | 9.7 | 24.1 | 0.00 | 0.00 | 0.00 | 34 | 1009.2 |
| 20260505122305 | 23 | 196 | 3.2 | 35.4 | 0.00 | 0.00 | 0.00 | 34 | 1009.2 |
| 20260505121756 | 23 | 50 | 1.6 | 35.4 | 0.00 | 0.00 | 0.00 | 35 | 1009.2 |
| 20260505121256 | 23 | 96 | 16.1 | 27.4 | 0.00 | 0.00 | 0.00 | 34 | 1009.2 |
| 20260505120756 | 23 | 86 | 4.8 | 29.0 | 0.00 | 0.00 | 0.00 | 34 | 1009.2 |
| 20260505120256 | 23 | 72 | 8.0 | 30.6 | 0.00 | 0.00 | 0.00 | 34 | 1009.2 |
| 20260505120031 | 23 | 105 | 12.9 | 30.6 | 0.00 | 0.00 | 0.00 | 35 | 1009.1 |
| 20260505115255 | 23 | 59 | 4.8 | 30.6 | 0.00 | 0.00 | 0.00 | 35 | 1009.3 |
| 20260505114756 | 23 | 75 | 11.3 | 35.4 | 0.00 | 0.00 | 0.00 | 35 | 1009.4 |
| 20260505114256 | 23 | 109 | 9.7 | 35.4 | 0.00 | 0.00 | 0.00 | 34 | 1009.1 |
| 20260505113759 | 24 | 100 | 4.8 | 24.1 | 0.00 | 0.00 | 0.00 | 34 | 1009.3 |
| 20260505113256 | 25 | 89 | 8.0 | 29.0 | 0.00 | 0.00 | 0.00 | 33 | 1009.3 |
| 20260505112753 | 25 | 109 | 0.0 | 29.0 | 0.00 | 0.00 | 0.00 | 34 | 1009.2 |
| 20260505112253 | 25 | 124 | 8.0 | 25.7 | 0.00 | 0.00 | 0.00 | 34 | 1009.3 |
| 20260505112030 | 24 | 69 | 19.3 | 24.1 | 0.00 | 0.00 | 0.00 | 33 | 1009.1 |
| 20260505111251 | 25 | 137 | 0.0 | 22.5 | 0.00 | 0.00 | 0.00 | 33 | 1009.2 |
| 20260505110753 | 25 | 176 | 9.7 | 22.5 | 0.00 | 0.00 | 0.00 | 32 | 1009.3 |
| 20260505110253 | 25 | 44 | 9.7 | 29.0 | 0.00 | 0.00 | 0.00 | 32 | 1009.3 |
| 20260505102031 | 23 | 89 | 19.3 | 29.0 | 0.00 | 0.00 | 0.00 | 33 | 1009.7 |
| 20260505101252 | 23 | 95 | 6.4 | 29.0 | 0.00 | 0.00 | 0.00 | 33 | 1009.8 |
| 20260505100752 | 23 | 106 | 6.4 | 22.5 | 0.00 | 0.00 | 0.00 | 33 | 1009.7 |
| 20260505100556 | 23 | 162 | 1.6 | 29.0 | 0.00 | 0.00 | 0.00 | 34 | 1009.9 |
| 20260505095752 | 22 | 94 | 12.9 | 33.8 | 0.00 | 0.00 | 0.00 | 34 | 1010.0 |
| 20260505095252 | 22 | 39 | 9.7 | 33.8 | 0.00 | 0.00 | 0.00 | 34 | 1010.2 |
| 20260505094752 | 22 | 52 | 9.7 | 38.6 | 0.00 | 0.00 | 0.00 | 34 | 1010.2 |
| 20260505094256 | 22 | 60 | 4.8 | 38.6 | 0.00 | 0.00 | 0.00 | 35 | 1010.1 |
| 20260505093754 | 22 | 70 | 1.6 | 25.7 | 0.00 | 0.00 | 0.00 | 34 | 1010.1 |
| 20260505093254 | 22 | 65 | 22.5 | 25.7 | 0.00 | 0.00 | 0.00 | 33 | 1010.2 |
| 20260505092755 | 23 | 139 | 4.8 | 29.0 | 0.00 | 0.00 | 0.00 | 33 | 1010.2 |
| 20260505092255 | 23 | 48 | 3.2 | 38.6 | 0.00 | 0.00 | 0.00 | 34 | 1010.1 |
| 20260505091756 | 22 | 145 | 3.2 | 38.6 | 0.00 | 0.00 | 0.00 | 35 | 1010.0 |
| 20260505091255 | 23 | 101 | 9.7 | 30.6 | 0.00 | 0.00 | 0.00 | 34 | 1009.9 |
| 20260505091033 | 22 | 202 | 3.2 | 29.0 | 0.00 | 0.00 | 0.00 | 35 | 1010.1 |
| 20260505090255 | 22 | 306 | 3.2 | 17.7 | 0.00 | 0.00 | 0.00 | 35 | 1010.2 |
| 20260505090030 | 22 | 224 | 3.2 | 27.4 | 0.00 | 0.00 | 0.00 | 35 | 1010.3 |
| 20260505085252 | 22 | 56 | 24.1 | 27.4 | 0.00 | 0.00 | 0.00 | 35 | 1010.4 |
| 20260505084753 | 21 | 39 | 3.2 | 22.5 | 0.00 | 0.00 | 0.00 | 36 | 1010.4 |
| 20260505084528 | 22 | 63 | 9.7 | 46.7 | 0.00 | 0.00 | 0.00 | 35 | 1010.5 |
| 20260505083740 | 22 | 53 | 1.6 | 46.7 | 0.00 | 0.00 | 0.00 | 36 | 1010.3 |
| 20260505083240 | 22 | 279 | 6.4 | 49.9 | 0.00 | 0.00 | 0.00 | 35 | 1010.5 |
| 20260505082739 | 22 | 65 | 8.0 | 49.9 | 0.00 | 0.00 | 0.00 | 35 | 1010.3 |
| 20260505082240 | 22 | 105 | 6.4 | 29.0 | 0.00 | 0.00 | 0.00 | 35 | 1010.5 |
| 20260505081740 | 22 | 230 | 1.6 | 22.5 | 0.00 | 0.00 | 0.00 | 36 | 1010.2 |
| 20260505081240 | 22 | 221 | 1.6 | 33.8 | 0.00 | 0.00 | 0.00 | 38 | 1010.0 |
| 20260505080739 | 21 | 81 | 19.3 | 33.8 | 0.00 | 0.00 | 0.00 | 36 | 1010.2 |
| 20260505080240 | 21 | 70 | 8.0 | 25.7 | 0.00 | 0.00 | 0.00 | 37 | 1010.0 |
| 20260505075740 | 21 | 27 | 9.7 | 30.6 | 0.00 | 0.00 | 0.00 | 40 | 1010.2 |
| 20260505075239 | 21 | 245 | 1.6 | 30.6 | 0.00 | 0.00 | 0.00 | 39 | 1010.1 |
| 20260505074821 | 22 | 100 | 6.4 | 17.7 | 0.00 | 0.00 | 0.00 | 41 | 1010.0 |
| 20260505074817 | 21 | 41 | 6.4 | 20.9 | 0.00 | 0.00 | 0.00 | 42 | 1010.1 |
| 20260505074804 | 21 | 100 | 6.4 | 24.1 | 0.00 | 0.00 | 0.00 | 40 | 1010.1 |
| 20260505073240 | 21 | 93 | 1.6 | 20.9 | 0.00 | 0.00 | 0.00 | 43 | 1010.1 |
| 20260505073018 | 21 | 63 | 9.7 | 24.1 | 0.00 | 0.00 | 0.00 | 43 | 1010.0 |
| 20260505072241 | 20 | 111 | 11.3 | 24.1 | 0.00 | 0.00 | 0.00 | 44 | 1010.1 |
| 20260505071740 | 21 | 145 | 14.5 | 27.4 | 0.00 | 0.00 | 0.00 | 44 | 1010.1 |
| 20260505071240 | 20 | 265 | 6.4 | 27.4 | 0.00 | 0.00 | 0.00 | 45 | 1010.4 |
| 20260505070739 | 20 | 3 | 4.8 | 29.0 | 0.00 | 0.00 | 0.00 | 44 | 1010.3 |
| 20260505070240 | 20 | 116 | 3.2 | 30.6 | 0.00 | 0.00 | 0.00 | 44 | 1010.3 |
| 20260505065741 | 20 | 56 | 17.7 | 30.6 | 0.00 | 0.00 | 0.00 | 46 | 1010.2 |
| 20260505065241 | 20 | 227 | 6.4 | 22.5 | 0.00 | 0.00 | 0.00 | 46 | 1010.2 |
| 20260505064740 | 20 | 191 | 3.2 | 22.5 | 0.00 | 0.00 | 0.00 | 46 | 1010.2 |
| 20260505064527 | 20 | 103 | 4.8 | 17.7 | 0.00 | 0.00 | 0.00 | 46 | 1010.1 |
| 20260505063742 | 20 | 89 | 1.6 | 27.4 | 0.00 | 0.00 | 0.00 | 49 | 1010.2 |
| 20260505063243 | 20 | 63 | 3.2 | 27.4 | 0.00 | 0.00 | 0.00 | 49 | 1009.9 |
| 20260505062743 | 20 | 323 | 3.2 | 16.1 | 0.00 | 0.00 | 0.00 | 47 | 1010.2 |
| 20260505062243 | 20 | 67 | 4.8 | 16.1 | 0.00 | 0.00 | 0.00 | 47 | 1010.2 |
| 20260505061740 | 20 | 298 | 3.2 | 16.1 | 0.00 | 0.00 | 0.00 | 47 | 1010.3 |
| 20260505061240 | 19 | 327 | 4.8 | 16.1 | 0.00 | 0.00 | 0.00 | 47 | 1010.5 |
| 20260505060739 | 19 | 48 | 3.2 | 16.1 | 0.00 | 0.00 | 0.00 | 47 | 1010.5 |
| 20260505060239 | 18 | 81 | 6.4 | 12.9 | 0.00 | 0.00 | 0.00 | 48 | 1010.7 |
| 20260505055737 | 17 | 324 | 1.6 | 12.9 | 0.00 | 0.00 | 0.00 | 52 | 1010.9 |
| 20260505055232 | 14 | 325 | 4.8 | 4.8 | 0.00 | 0.00 | 0.00 | 64 | 1010.9 |
| 20260505054728 | 13 | 104 | 1.6 | 9.7 | 0.00 | 0.00 | 0.00 | 67 | 1011.0 |
| 20260505054225 | 12 | 342 | 3.2 | 9.7 | 0.00 | 0.00 | 0.00 | 68 | 1011.0 |
| 20260505053720 | 12 | 278 | 0.0 | 4.8 | 0.00 | 0.00 | 0.00 | 69 | 1011.0 |
| 20260505053216 | 12 | 24 | 1.6 | 6.4 | 0.00 | 0.00 | 0.00 | 68 | 1010.7 |
| 20260505052716 | 13 | 300 | 3.2 | 6.4 | 0.00 | 0.00 | 0.00 | 67 | 1010.7 |
| 20260505052216 | 12 | 21 | 1.6 | 4.8 | 0.00 | 0.00 | 0.00 | 67 | 1011.1 |
| 20260505051705 | 13 | 301 | 3.2 | 3.2 | 0.00 | 0.00 | 0.00 | 68 | 1011.1 |
| 20260505051204 | 13 | 106 | 0.0 | 1.6 | 0.00 | 0.00 | 0.00 | 69 | 1011.0 |
| 20260505050938 | 13 | 276 | 0.0 | 3.2 | 0.00 | 0.00 | 0.00 | 64 | 1011.0 |
| 20260505050200 | 13 | 348 | 0.0 | 4.8 | 0.00 | 0.00 | 0.00 | 58 | 1011.1 |
| 20260505041700 | 12 | 169 | 0.0 | 12.9 | 0.00 | 0.00 | 0.00 | 64 | 1011.4 |
| 20260505041200 | 11 | 288 | 1.6 | 12.9 | 0.00 | 0.00 | 0.00 | 62 | 1011.2 |
| 20260505040700 | 10 | 6 | 1.6 | 3.2 | 0.00 | 0.00 | 0.00 | 69 | 1011.4 |
| 20260505040228 | 10 | 103 | 1.6 | 4.8 | 0.00 | 0.00 | 0.00 | 72 | 1011.3 |
| 20260505040219 | 9 | 115 | 0.0 | 4.8 | 0.00 | 0.00 | 0.00 | 70 | 1011.4 |
| 20260505035159 | 11 | 287 | 1.6 | 4.8 | 0.00 | 0.00 | 0.00 | 64 | 1011.5 |
| 20260505034652 | 10 | 316 | 0.0 | 6.4 | 0.00 | 0.00 | 0.00 | 66 | 1011.5 |
| 20260505034152 | 10 | 337 | 1.6 | 6.4 | 0.00 | 0.00 | 0.00 | 65 | 1011.5 |
| 20260505033652 | 9 | 317 | 0.0 | 6.4 | 0.00 | 0.00 | 0.00 | 71 | 1011.4 |
| 20260505033152 | 8 | 119 | 1.6 | 6.4 | 0.00 | 0.00 | 0.00 | 76 | 1011.1 |
| 20260505032651 | 8 | 119 | 3.2 | 6.4 | 0.00 | 0.00 | 0.00 | 77 | 1011.4 |
| 20260505032153 | 9 | 104 | 3.2 | 4.8 | 0.00 | 0.00 | 0.00 | 73 | 1011.3 |
| 20260505031652 | 9 | 104 | 4.8 | 4.8 | 0.00 | 0.00 | 0.00 | 72 | 1011.5 |
| 20260505031152 | 9 | 104 | 0.0 | 3.2 | 0.00 | 0.00 | 0.00 | 72 | 1011.6 |
| 20260505030652 | 9 | 104 | 1.6 | 6.4 | 0.00 | 0.00 | 0.00 | 75 | 1011.7 |
| 20260505030152 | 9 | 104 | 1.6 | 6.4 | 0.00 | 0.00 | 0.00 | 73 | 1011.5 |
| 20260505025944 | 8 | 104 | 3.2 | 6.4 | 0.00 | 0.00 | 0.00 | 76 | 1011.7 |
| 20260505025152 | 8 | 103 | 3.2 | 6.4 | 0.00 | 0.00 | 0.00 | 75 | 1011.9 |
| 20260505024651 | 8 | 101 | 3.2 | 6.4 | 0.00 | 0.00 | 0.00 | 80 | 1012.0 |
| 20260505024151 | 7 | 101 | 3.2 | 4.8 | 0.00 | 0.00 | 0.00 | 82 | 1012.1 |
| 20260505023652 | 6 | 101 | 3.2 | 3.2 | 0.00 | 0.00 | 0.00 | 85 | 1012.0 |
| 20260505023150 | 6 | 101 | 1.6 | 1.6 | 0.00 | 0.00 | 0.00 | 85 | 1012.1 |
| 20260505022651 | 6 | 101 | 0.0 | 0.0 | 0.00 | 0.00 | 0.00 | 84 | 1012.2 |
| 20260505022149 | 6 | 101 | 0.0 | 1.6 | 0.00 | 0.00 | 0.00 | 83 | 1012.2 |
| 20260505021653 | 6 | 101 | 0.0 | 1.6 | 0.00 | 0.00 | 0.00 | 84 | 1012.3 |
| 20260505021425 | 7 | 101 | 1.6 | 1.6 | 0.00 | 0.00 | 0.00 | 84 | 1012.4 |
| 20260505020921 | 7 | 101 | 0.0 | 1.6 | 0.00 | 0.00 | 0.00 | 84 | 1012.3 |
| 20260505020142 | 7 | 101 | 0.0 | 3.2 | 0.00 | 0.00 | 0.00 | 84 | 1012.6 |
| 20260505015650 | 7 | 101 | 1.6 | 3.2 | 0.00 | 0.00 | 0.00 | 83 | 1012.6 |
| 20260505015142 | 7 | 101 | 0.0 | 0.0 | 0.00 | 0.00 | 0.00 | 83 | 1012.7 |
| 20260505014650 | 7 | 101 | 0.0 | 0.0 | 0.00 | 0.00 | 0.00 | 82 | 1012.6 |
| 20260505014142 | 7 | 101 | 0.0 | 0.0 | 0.00 | 0.00 | 0.00 | 81 | 1012.6 |
| 20260505013652 | 7 | 101 | 0.0 | 0.0 | 0.00 | 0.00 | 0.00 | 78 | 1012.8 |
| 20260505013143 | 7 | 101 | 0.0 | 0.0 | 0.00 | 0.00 | 0.00 | 80 | 1012.8 |
| 20260505012643 | 8 | 101 | 0.0 | 3.2 | 0.00 | 0.00 | 0.00 | 78 | 1012.7 |
| 20260505012504 | 8 | 101 | 0.0 | 6.4 | 0.00 | 0.00 | 0.00 | 79 | 1012.5 |
| 20260505011642 | 7 | 100 | 3.2 | 6.4 | 0.00 | 0.00 | 0.00 | 79 | 1012.8 |
| 20260505011142 | 8 | 91 | 6.4 | 6.4 | 0.00 | 0.00 | 0.00 | 78 | 1013.0 |
| 20260505010642 | 7 | 83 | 1.6 | 4.8 | 0.00 | 0.00 | 0.00 | 78 | 1012.9 |
| 20260505010142 | 7 | 83 | 0.0 | 4.8 | 0.00 | 0.00 | 0.00 | 79 | 1013.1 |
| 20260505005643 | 7 | 83 | 3.2 | 4.8 | 0.00 | 0.00 | 0.00 | 79 | 1013.2 |
| 20260505005142 | 7 | 83 | 1.6 | 4.8 | 0.00 | 0.00 | 0.00 | 79 | 1013.2 |
| 20260505004917 | 7 | 83 | 3.2 | 3.2 | 0.00 | 0.00 | 0.00 | 78 | 1013.2 |
| 20260505004145 | 7 | 83 | 0.0 | 4.8 | 0.00 | 0.00 | 0.00 | 78 | 1013.2 |
| 20260505003642 | 7 | 83 | 0.0 | 4.8 | 0.00 | 0.00 | 0.00 | 78 | 1013.0 |
| 20260505003143 | 8 | 83 | 3.2 | 4.8 | 0.00 | 0.00 | 0.00 | 77 | 1013.0 |
| 20260505002640 | 8 | 83 | 1.6 | 4.8 | 0.00 | 0.00 | 0.00 | 74 | 1013.1 |
| 20260505002141 | 9 | 83 | 4.8 | 4.8 | 0.00 | 0.00 | 0.00 | 72 | 1013.3 |
| 20260505001640 | 9 | 29 | 0.0 | 4.8 | 0.00 | 0.00 | 0.00 | 74 | 1013.3 |
| 20260505001140 | 10 | 28 | 1.6 | 4.8 | 0.00 | 0.00 | 0.00 | 68 | 1013.3 |
| 20260505000640 | 10 | 28 | 0.0 | 4.8 | 0.00 | 0.00 | 0.00 | 69 | 1013.2 |
| 20260505000141 | 10 | 28 | 3.2 | 6.4 | 0.00 | 0.00 | 0.00 | 69 | 1013.5 |
| 20260504235639 | 9 | 97 | 0.0 | 6.4 | 0.00 | 0.00 | 0.00 | 69 | 1013.4 |
| 20260504235140 | 9 | 94 | 0.0 | 3.2 | 0.00 | 0.00 | 0.00 | 70 | 1013.4 |
| 20260504234641 | 9 | 94 | 3.2 | 4.8 | 0.00 | 0.00 | 0.00 | 71 | 1013.5 |
| 20260504234141 | 8 | 94 | 3.2 | 6.4 | 0.00 | 0.00 | 0.00 | 73 | 1013.4 |
| 20260504233644 | 8 | 95 | 3.2 | 6.4 | 0.00 | 0.00 | 0.00 | 73 | 1013.5 |
| 20260504233145 | 8 | 97 | 6.4 | 6.4 | 0.00 | 0.00 | 0.00 | 75 | 1013.5 |
| 20260504232644 | 8 | 95 | 4.8 | 6.4 | 0.00 | 0.00 | 0.00 | 72 | 1013.7 |
| 20260504232146 | 8 | 102 | 3.2 | 6.4 | 0.00 | 0.00 | 0.00 | 74 | 1013.7 |
| 20260504231642 | 8 | 92 | 3.2 | 3.2 | 0.00 | 0.00 | 0.00 | 77 | 1013.6 |
| 20260504231147 | 8 | 92 | 0.0 | 4.8 | 0.00 | 0.00 | 0.00 | 77 | 1013.7 |
| 20260504230643 | 8 | 92 | 1.6 | 4.8 | 0.00 | 0.00 | 0.00 | 75 | 1013.7 |
| 20260504230146 | 8 | 92 | 1.6 | 4.8 | 0.00 | 0.00 | 0.00 | 74 | 1013.8 |
| 20260504225643 | 8 | 92 | 3.2 | 4.8 | 0.00 | 0.00 | 0.00 | 77 | 1014.0 |
| 20260504225146 | 8 | 92 | 1.6 | 3.2 | 0.00 | 0.00 | 0.00 | 72 | 1014.1 |
| 20260504224643 | 9 | 92 | 1.6 | 3.2 | 0.00 | 0.00 | 0.00 | 72 | 1014.2 |